Regional Weather Roundup
Issued by NWS

Home | Current Version | Previous Version | Text Only | Print | Product List | Glossary Off
Versions: 1 2 3 4 5 6 7 8 9 10 11 12 13 14 15 16 17 18 19 20 21 22 23 24 25 26 27 28 29 30 31 32 33 34 35 36 37 38 39 40 41 42 43 44 45 46 47 48 49 50

000
ASUS44 KMEG 211210
RWRTN
TENNESSEE HOURLY STATE WEATHER ROUNDUP
NATIONAL WEATHER SERVICE MEMPHIS TN
700 AM CDT FRI JUL 21 2017

TNZ002-004-019-021-049-052-054-088>092-211300-
WEST TENNESSEE

CITY           SKY/WX    TMP DP  RH WIND       PRES   REMARKS
MEMPHIS INTL   MOSUNNY   81  76  84 CALM      30.04R
NWS MEMPHIS      N/A     77 N/A N/A MISG        N/A
JACKSON        SUNNY     75  73  93 CALM      30.05R FOG
SOMERVILLE       N/A     75  75 100 CALM      30.04R FOG
COVINGTON      SUNNY     75  75 100 CALM      30.04R FOG
UNION CITY     PTSUNNY   77  75  94 S3        30.03R
BOLIVAR        SUNNY     73  72  94 CALM      30.05R
PARIS          PTSUNNY   77  75  94 CALM      30.04R
HUNTINGDON     MOSUNNY   77  75  94 CALM      30.04S
SELMER         SUNNY     75  73  94 CALM      30.06R
SAVANNAH       SUNNY     73  72  94 CALM      30.05R
$$

TNZ008-025-027-028-033-062-065-066-211300-
NORTH MIDDLE TENNESSEE

CITY           SKY/WX    TMP DP  RH WIND       PRES   REMARKS
NASHVILLE      CLOUDY    77  73  87 CALM      30.07R FOG
PORTLAND       SUNNY     77  75  94 CALM      30.07R
CLARKSVILLE    SUNNY     75  73  93 CALM      30.05R FOG
SMYRNA         CLOUDY    76  74  93 CALM      30.07S FOG
COOKEVILLE     MOSUNNY   73  72  94 CALM      30.09R FOG
GALLATIN       SUNNY     75  73  94 CALM      30.09R FOG
CROSSVILLE     PTSUNNY   70  68  93 CALM      30.15R FOG
$$

TNZ061-075-076-078-094-096-097-211300-
SOUTH MIDDLE TENNESSEE

CITY           SKY/WX    TMP DP  RH WIND       PRES   REMARKS
FAYETTEVILLE   SUNNY     75  73  94 CALM      30.08R
TULLAHOMA      SUNNY     75  70  83 CALM      30.11R
WINCHESTER     SUNNY     73  72  94 CALM      30.09R
MCMINNVILLE    CLOUDY    73  73 100 CALM      30.10R VSB 1
COLUMBIA       SUNNY     73  73 100 CALM      30.06R FOG
SHELBYVILLE    FOG       73  73 100 CALM      30.08R VSB 1/4
$$

TNZ017-018-042-046-047-211300-
NORTHEAST TENNESSEE

CITY           SKY/WX    TMP DP  RH WIND       PRES   REMARKS
TRI CITIES     MOSUNNY   71  69  93 CALM      30.12R
ELIZABETHTON   MOSUNNY   72  68  88 CALM      30.13R
$$

TNZ012-013-036-069-073-074-211300-
CENTRAL EAST TENNESSEE

CITY           SKY/WX    TMP DP  RH WIND       PRES   REMARKS
KNOXVILLE      PTSUNNY   73  69  87 CALM      30.08R
OAK RIDGE      MOSUNNY   74  71  91 CALM      30.10R FOG
DOWNTOWN KNOXV PTSUNNY   72  72 100 CALM      30.08R FOG
GATLINBURG     SUNNY     72  66  83 CALM      30.08R
MORRISTOWN     CLOUDY    73  70  88 CALM      30.10R
JACKSBORO      PTSUNNY   72  72 100 CALM      30.13R FOG
$$

TNZ083-085-099-211300-
SOUTHEAST TENNESSEE

CITY           SKY/WX    TMP DP  RH WIND       PRES   REMARKS
CHATTANOOGA    MOSUNNY   78  73  84 NW5       30.07R
$$

SKY/WX REPORTED AS FAIR MEANS FEW OR NO CLOUDS BELOW
12 THOUSAND FEET.




USA.gov is the U.S. government's official web portal to all federal, state and local government web resources and services.